[[{"header":{"parameterUnit":"m.s-1","parameterCategory":1,"la1":30.2991,"la2":30.254,"lo1":-89.0895,"lo2":-89.0444,"dy":0.0017,"dx":0.0017,"nx":28,"ny":28,"refTime":"2025-03-16T03:00:00:Z","depth":0,"parameterNumber":2,"parameterNumberName":"U-component_of_WINDS"},"data":[0,0,0,0,0,0,0,0,0,0,0,0,0,0,0,0,0,0,0,0,0,0,0,0,0,0,0,0,0,0,0,0,0,0,0,0,0,0,0,0,0,0,0,0,0,0,0,0,0,0,0,0,0,0,0,0,0,0,2.4674,2.4675,0,2.4782,2.4783,2.4785,2.4803,2.4802,2.4801,2.48,2.4913,2.4917,2.4921,0,0,0,0,0,0,0,0,0,0,0,0,0,2.4486,2.449,2.4674,2.4675,2.4677,2.4782,2.4783,2.4785,2.4803,2.4802,2.4801,2.48,2.4912,2.4916,2.4921,0,0,0,0,0,0,0,0,0,0,0,0,0,2.4579,2.4491,2.4674,2.4698,2.4702,2.4782,2.4784,2.4785,2.4803,2.4802,2.4801,2.4799,2.491,2.4916,2.4922,2.4985,0,0,2.4939,2.4942,0,0,0,0,0,0,0,0,2.4573,2.4585,2.4693,2.4697,2.4701,2.4778,2.4759,2.4852,2.4804,2.4765,2.48,2.4799,2.4869,2.4878,2.4902,2.4991,2.4995,2.494,2.4943,2.4946,2.4948,0,0,0,0,0,0,0,2.4567,2.4581,2.4717,2.4695,2.4699,2.4705,2.4717,2.4777,2.4824,2.4768,2.477,2.4782,2.4871,2.4896,2.4905,2.4997,2.494,2.4945,2.4948,2.4951,2.5147,2.5148,0,0,0,0,0,0,2.4556,2.4575,2.4713,2.472,2.4632,2.471,2.4723,2.4754,2.4823,2.4832,2.4783,2.4783,2.4887,2.4898,2.4909,2.4989,2.4946,2.4951,2.4955,2.5145,2.5147,2.5149,0,0,0,0,0,0,2.4552,2.4568,2.4709,2.4648,2.4667,2.4714,2.475,2.4757,2.4782,2.4834,2.4843,2.48,2.4886,2.49,2.4967,2.4993,2.4954,2.4959,2.5143,2.5146,2.5148,2.515,0,0,0,0,0,0,2.4546,2.4566,2.459,2.4649,2.467,2.4764,2.4751,2.476,2.4792,2.4792,2.4852,2.4861,2.4886,2.4958,2.4972,2.5001,2.4964,2.5141,2.5144,2.5147,2.5148,2.5153,2.5156,0,0,0,0,0,2.4539,2.4586,2.4591,2.4607,2.47,2.4765,2.4778,2.4805,2.4794,2.4819,2.4853,2.4859,2.4988,2.4964,2.4981,2.5011,2.5139,2.5143,2.5147,2.5146,2.5152,2.5156,0,0,0,0,0,0,2.4529,2.4594,2.46,2.4667,2.4711,2.4768,2.48,2.481,2.4858,2.4856,2.4889,2.4902,2.4967,2.4996,2.4968,2.5078,2.5063,2.507,2.5057,2.5063,2.5067,2.5059,2.4969,0,0,0,0,0,2.4535,2.4581,2.4636,2.469,2.4711,2.4752,2.4782,2.4799,2.4846,2.4864,2.4903,2.4949,2.5,2.5033,2.5082,2.5152,2.5167,2.5182,2.5186,2.5189,2.5195,2.5237,2.5245,2.5162,2.5162,2.5161,0,0,2.4547,2.4588,2.4615,2.4689,2.4725,2.4774,2.4767,2.4819,2.4856,2.4872,2.4937,2.4968,2.5021,2.509,2.5122,2.5116,2.5222,2.5194,2.5196,2.5201,2.5242,2.5249,2.5256,2.5164,2.5164,2.5163,0,0,2.4593,2.4629,2.4678,2.4715,2.4769,2.4796,2.4808,2.4865,2.4886,2.4952,2.4966,2.5011,2.5098,2.5136,2.5167,2.5231,2.5239,2.5246,2.5268,2.5309,2.5315,2.5321,2.5346,2.5354,2.5252,2.5252,2.5252,0,2.4601,2.4675,2.4703,2.4754,2.4787,2.4804,2.4856,2.489,2.4958,2.4981,2.4973,2.5084,2.5121,2.52,2.5216,2.524,2.5256,2.5239,2.5312,2.5318,2.5324,2.5348,2.5357,2.5253,2.5253,2.5252,2.5252,0,2.4683,2.4734,2.4768,2.4833,2.487,2.4921,2.4958,2.4992,2.5007,2.5036,2.5104,2.515,2.521,2.523,2.5245,2.5312,2.5307,2.5305,2.529,2.5332,2.5355,2.5364,2.5253,2.5253,2.5253,2.5253,0,0,2.4725,2.4807,2.4819,2.485,2.4912,2.4953,2.5006,2.5064,2.5094,2.5141,2.5187,2.5262,2.5261,2.5296,2.5316,2.5351,2.5401,2.5345,2.5347,2.5355,2.548,2.5482,2.5492,2.5407,2.5409,2.541,2.5476,0,2.478,2.4874,2.4902,2.4982,2.5031,2.5049,2.5096,2.514,2.5169,2.5215,2.5247,2.53,2.5294,2.5316,2.5351,2.5387,2.5427,2.5383,2.5452,2.5454,2.5438,2.5503,2.5505,2.5565,2.5485,2.5487,2.5488,0,2.4856,2.4905,2.499,2.5048,2.507,2.5111,2.5168,2.5212,2.5263,2.5282,2.5322,2.534,2.5398,2.538,2.5462,2.5431,2.5461,2.5484,2.5487,2.5494,2.5474,2.5514,2.5584,2.5593,2.5502,2.5501,2.55,0,2.4881,2.4967,2.503,2.5056,2.5125,2.5154,2.5184,2.5234,2.5268,2.5319,2.5342,2.5399,2.543,2.5474,2.5507,2.5491,2.5587,2.5571,2.5605,2.5605,2.5625,2.5623,2.5702,2.5643,2.5643,2.5642,2.5642,0,2.494,2.4991,2.5042,2.508,2.5139,2.5172,2.523,2.5261,2.5306,2.5352,2.5372,2.5415,2.5455,2.5504,2.5531,2.5595,2.5609,2.5627,2.5634,2.5626,2.5624,2.5646,2.5643,2.5645,2.5644,2.5644,2.5643,0,2.4976,2.5012,2.5082,2.5142,2.5158,2.5199,2.5252,2.5291,2.5321,2.5379,2.5395,2.5443,2.5502,2.5539,2.5614,2.5632,2.5703,2.5708,2.5686,2.5689,2.5721,2.5718,2.5818,2.5833,2.5763,2.5764,2.5764,0,2.5011,2.5052,2.5117,2.5149,2.5179,2.5231,2.5266,2.5301,2.5337,2.54,2.5432,2.5492,2.5542,2.5636,2.5678,2.5737,2.5743,2.5775,2.5752,2.5744,2.5746,2.5743,2.5748,2.5778,2.5779,2.5779,2.578,0,2.5071,2.5088,2.5137,2.5194,2.5236,2.5283,2.5329,2.5355,2.5397,2.5438,2.5498,2.5537,2.5614,2.5675,2.5737,2.577,2.5783,2.5786,2.5798,2.579,2.5776,2.5786,2.5697,2.5784,2.5783,2.5783,2.5783,2.5783,2.5109,2.5147,2.5199,2.5254,2.5293,2.5337,2.5377,2.5413,2.5463,2.5529,2.5546,2.561,2.5663,2.5748,2.5783,2.5834,2.583,2.5846,2.585,2.5854,2.5855,2.5768,2.5846,2.5846,2.5846,2.5846,2.5845,0,2.5171,2.5206,2.5257,2.5322,2.5366,2.5374,2.5426,2.5463,2.5519,2.5567,2.5616,2.5687,2.5747,2.5794,2.5855,2.5888,2.5895,2.5903,2.5901,2.5909,2.5854,2.5839,2.5896,2.5896,2.5896,2.5896,2.5896,2.5896,2.5209,2.5273,2.5296,2.538,2.5415,2.5477,2.5507,2.5548,2.5587,2.5665,2.5714,2.5745,2.5794,2.5859,2.5915,2.5927,2.595,2.5956,2.597,2.5918,2.5913,2.5907,2.5893,2.596,2.596,2.6021,2.6021,2.6022]},{"header":{"parameterUnit":"m.s-1","parameterCategory":1,"la1":30.2991,"la2":30.254,"lo1":-89.0895,"lo2":-89.0444,"dy":0.0017,"dx":0.0017,"nx":28,"ny":28,"refTime":"2025-03-16T03:00:00:Z","depth":0,"parameterNumber":3,"parameterNumberName":"V-component_of_WINDS"},"data":[0,0,0,0,0,0,0,0,0,0,0,0,0,0,0,0,0,0,0,0,0,0,0,0,0,0,0,0,0,0,0,0,0,0,0,0,0,0,0,0,0,0,0,0,0,0,0,0,0,0,0,0,0,0,0,0,0,0,-4.7743,-4.7744,0,-4.7823,-4.7824,-4.7825,-4.7847,-4.7846,-4.7846,-4.7846,-4.7923,-4.7925,-4.7928,0,0,0,0,0,0,0,0,0,0,0,0,0,-4.7606,-4.7608,-4.7743,-4.7744,-4.7745,-4.7823,-4.7824,-4.7825,-4.7847,-4.7846,-4.7846,-4.7845,-4.7922,-4.7925,-4.7928,0,0,0,0,0,0,0,0,0,0,0,0,0,-4.7674,-4.7609,-4.7743,-4.7765,-4.7768,-4.7823,-4.7824,-4.7826,-4.7847,-4.7846,-4.7846,-4.7845,-4.7921,-4.7925,-4.7929,-4.7965,0,0,-4.794,-4.7942,0,0,0,0,0,0,0,0,-4.767,-4.7679,-4.7761,-4.7764,-4.7767,-4.7825,-4.7805,-4.7872,-4.7847,-4.7817,-4.7846,-4.7845,-4.7891,-4.7897,-4.7913,-4.7969,-4.7972,-4.794,-4.7943,-4.7944,-4.7945,0,0,0,0,0,0,0,-4.7665,-4.7675,-4.7775,-4.7762,-4.7766,-4.7771,-4.778,-4.7817,-4.7856,-4.782,-4.7821,-4.7831,-4.7892,-4.791,-4.7915,-4.7973,-4.794,-4.7944,-4.7946,-4.7947,-4.8066,-4.8067,0,0,0,0,0,0,-4.7657,-4.7671,-4.7772,-4.7777,-4.7716,-4.7774,-4.7784,-4.7807,-4.7856,-4.7863,-4.7831,-4.7832,-4.7903,-4.7911,-4.7918,-4.7966,-4.7944,-4.7948,-4.795,-4.8065,-4.8066,-4.8067,0,0,0,0,0,0,-4.7654,-4.7666,-4.7769,-4.7725,-4.7738,-4.7777,-4.7803,-4.7809,-4.7826,-4.7865,-4.7872,-4.7842,-4.7903,-4.7913,-4.7954,-4.7969,-4.7949,-4.7953,-4.8064,-4.8066,-4.8067,-4.8061,0,0,0,0,0,0,-4.765,-4.7665,-4.7679,-4.7725,-4.7741,-4.7805,-4.7804,-4.7811,-4.7833,-4.7834,-4.7877,-4.7883,-4.7903,-4.7949,-4.7958,-4.7974,-4.7956,-4.8063,-4.8065,-4.8066,-4.806,-4.8062,-4.8064,0,0,0,0,0,-4.7645,-4.7673,-4.768,-4.7692,-4.776,-4.7805,-4.7814,-4.7838,-4.7834,-4.7849,-4.7875,-4.7882,-4.7966,-4.7953,-4.7963,-4.798,-4.8062,-4.8064,-4.8066,-4.806,-4.8062,-4.8064,0,0,0,0,0,0,-4.7625,-4.7679,-4.7687,-4.7731,-4.7764,-4.7809,-4.7828,-4.7839,-4.7872,-4.7872,-4.7898,-4.7908,-4.7948,-4.7968,-4.7953,-4.802,-4.8014,-4.8018,-4.8005,-4.8008,-4.801,-4.8004,-4.7959,0,0,0,0,0,-4.7626,-4.766,-4.7705,-4.7739,-4.7755,-4.7789,-4.781,-4.7826,-4.786,-4.7873,-4.7901,-4.7933,-4.7967,-4.7989,-4.8022,-4.8064,-4.8074,-4.8081,-4.8083,-4.8084,-4.8087,-4.8113,-4.8117,-4.8074,-4.8074,-4.8074,0,0,-4.7628,-4.7662,-4.7681,-4.7736,-4.7763,-4.7797,-4.78,-4.7835,-4.786,-4.7878,-4.792,-4.7942,-4.7979,-4.8022,-4.8042,-4.804,-4.8102,-4.8087,-4.8088,-4.809,-4.8116,-4.812,-4.8123,-4.8076,-4.8075,-4.8075,0,0,-4.7649,-4.7677,-4.771,-4.7738,-4.7781,-4.7804,-4.7812,-4.7856,-4.7872,-4.7915,-4.793,-4.796,-4.8017,-4.8044,-4.8065,-4.81,-4.8109,-4.811,-4.8119,-4.8144,-4.8148,-4.8151,-4.8165,-4.8169,-4.8113,-4.8113,-4.8113,0,-4.7645,-4.7697,-4.7725,-4.7761,-4.7785,-4.7805,-4.7839,-4.7864,-4.7914,-4.793,-4.7928,-4.8002,-4.8029,-4.8079,-4.8088,-4.8104,-4.8114,-4.8105,-4.8145,-4.8149,-4.8152,-4.8165,-4.817,-4.8113,-4.8113,-4.8113,-4.8113,0,-4.7692,-4.7728,-4.7749,-4.7801,-4.7827,-4.7861,-4.7894,-4.7917,-4.7932,-4.7955,-4.8,-4.8033,-4.8074,-4.8087,-4.81,-4.814,-4.8138,-4.814,-4.8135,-4.8156,-4.8169,-4.8174,-4.8113,-4.8113,-4.8113,-4.8113,0,0,-4.7699,-4.7768,-4.7776,-4.78,-4.785,-4.7878,-4.7914,-4.7957,-4.7977,-4.8012,-4.8043,-4.8092,-4.8096,-4.812,-4.8136,-4.8158,-4.8186,-4.8158,-4.8159,-4.8163,-4.8234,-4.8232,-4.8238,-4.8192,-4.8193,-4.8194,-4.8231,0,-4.7727,-4.7794,-4.7821,-4.7874,-4.7909,-4.7931,-4.7962,-4.7996,-4.8019,-4.8051,-4.8077,-4.8112,-4.8113,-4.8128,-4.8151,-4.8178,-4.8201,-4.8175,-4.8221,-4.8222,-4.8211,-4.8244,-4.8242,-4.8275,-4.8236,-4.8237,-4.8238,0,-4.7768,-4.7806,-4.7863,-4.7912,-4.7928,-4.7955,-4.7998,-4.8029,-4.8068,-4.8084,-4.8113,-4.8129,-4.8168,-4.816,-4.8214,-4.8196,-4.8217,-4.8233,-4.8235,-4.824,-4.8231,-4.8251,-4.8286,-4.8292,-4.8246,-4.8245,-4.8245,0,-4.7769,-4.7835,-4.7879,-4.7899,-4.7956,-4.7975,-4.8,-4.8039,-4.8064,-4.8101,-4.8117,-4.8158,-4.818,-4.821,-4.8237,-4.8229,-4.8289,-4.8284,-4.8303,-4.8303,-4.8314,-4.8313,-4.8354,-4.8327,-4.8327,-4.8326,-4.8326,0,-4.7797,-4.7832,-4.7881,-4.7907,-4.7947,-4.7979,-4.8017,-4.8043,-4.8078,-4.811,-4.813,-4.8159,-4.8193,-4.8227,-4.8248,-4.829,-4.83,-4.8313,-4.8319,-4.8312,-4.831,-4.8325,-4.8324,-4.8328,-4.8328,-4.8327,-4.8327,0,-4.7805,-4.7839,-4.7889,-4.794,-4.7954,-4.7981,-4.8025,-4.8052,-4.8078,-4.8118,-4.813,-4.8169,-4.821,-4.8241,-4.8293,-4.8308,-4.8353,-4.8358,-4.834,-4.8343,-4.8361,-4.836,-4.8414,-4.8423,-4.8389,-4.8389,-4.8389,0,-4.7821,-4.7849,-4.7905,-4.7929,-4.7954,-4.7992,-4.8019,-4.8051,-4.8078,-4.8127,-4.8148,-4.8191,-4.8228,-4.8293,-4.8325,-4.8366,-4.8373,-4.8389,-4.8379,-4.8372,-4.8374,-4.8372,-4.8376,-4.839,-4.839,-4.839,-4.8391,0,-4.7846,-4.7862,-4.7901,-4.7946,-4.7978,-4.8015,-4.8052,-4.807,-4.8109,-4.8138,-4.8182,-4.8211,-4.8266,-4.8309,-4.8354,-4.8378,-4.8391,-4.8394,-4.8401,-4.8394,-4.8384,-4.8391,-4.8345,-4.8392,-4.8392,-4.8392,-4.8392,-4.8392,-4.7859,-4.7886,-4.793,-4.7973,-4.8005,-4.804,-4.8069,-4.81,-4.8137,-4.8187,-4.8203,-4.8249,-4.829,-4.8352,-4.8377,-4.8413,-4.8413,-4.8422,-4.8425,-4.8427,-4.8427,-4.8378,-4.8421,-4.8421,-4.8421,-4.8421,-4.8421,0,-4.7886,-4.7917,-4.7956,-4.8009,-4.8043,-4.8055,-4.8097,-4.8124,-4.8165,-4.8203,-4.824,-4.8291,-4.8334,-4.8371,-4.8416,-4.8437,-4.8444,-4.8448,-4.8446,-4.8452,-4.8424,-4.8414,-4.8441,-4.8441,-4.8441,-4.8441,-4.8441,-4.8441,-4.7904,-4.7951,-4.7973,-4.8036,-4.8066,-4.8113,-4.8136,-4.8169,-4.82,-4.8257,-4.8293,-4.8319,-4.8357,-4.8405,-4.8444,-4.8454,-4.847,-4.8472,-4.8483,-4.8456,-4.8454,-4.8451,-4.8443,-4.8475,-4.8475,-4.8509,-4.8509,-4.8509]}]]